Regional Weather Roundup
Issued by NWS New Orleans/Baton Rouge, LA

Home | Current Version | Previous Version | Graphics & Text | Print | Product List | Glossary On
Versions: 1 2 3 4 5 6 7 8 9 10 11 12 13 14 15 16 17 18 19 20 21 22 23 24 25 26 27 28 29 30 31 32 33 34 35 36 37 38 39 40 41 42 43 44 45 46 47 48 49 50
794
ASUS44 KLIX 230301
RWRLIX
NEW ORLEANS REGIONAL WEATHER ROUNDUP
NATIONAL WEATHER SERVICE NEW ORLEANS LA
900 PM CST SAT NOV 22 2014

NOTE: "FAIR" INDICATES FEW OR NO CLOUDS BELOW 12,000 FEET WITH NO
      SIGNIFICANT WEATHER AND/OR OBSTRUCTIONS TO VISIBILITY.
      SKY/WX - SKY CONDITION AND SIGNIFICANT WEATHER.
      TMP - AIR TEMPERATURE.     DP    - DEWPOINT TEMPERATURE.
      RH  - RELATIVE HUMIDITY.   PRES  - PRESSURE.
      HI  - HEAT INDEX.          WCI   - WIND CHILL INDEX.

*  THESE STATIONS ARE NOT NWS OR FAA STATIONS AND ARE NOT UNDER
   NWS QUALITY CONTROL.

LAZ038-040-048-061>063-065>067-069-230400-
SOUTHEAST LOUISIANA

CITY           SKY/WX    TMP DP  RH WIND       PRES   REMARKS
N.O. AUDUBON     N/A     65  62  90 MISG        N/A
N.O. INTL ARPT CLOUDY    64  60  87 E9G20     29.94F
N.O. LAKEFRONT CLOUDY    63  60  90 E17       29.95F FOG
N.O. DOWNTOWN* MOCLDY    64  57  77 NE6       29.94F
SLIDELL        CLOUDY    65  61  87 E13       29.96F
BATON ROUGE    CLOUDY    64  60  87 E12       29.93F
BOOTHVILLE     CLOUDY    62  62 100 NE9       29.99R
BELLE CHASSE   CLOUDY    66  61  84 E15       29.93F
BOGALUSA*        N/A     64  59  81 E5        30.00F
NEW ROADS*     CLOUDY    64  59  85 E8        29.94R
GONZALES*      NOT AVBL
HAMMOND*       CLOUDY    64  59  82 E13       29.95F
HOUMA*         LGT RAIN  66  64  96 E10       29.93S
PORT FOURCHON* NOT AVBL

$$

MSZ070-080>082-230400-
SOUTHERN MISSISSIPPI

CITY           SKY/WX    TMP DP  RH WIND       PRES   REMARKS
MCCOMB         CLOUDY    61  56  83 SE12      29.96F
GULFPORT         N/A     62  59  90 E14       30.01F
BILOXI         CLOUDY    62  60  93 E10       30.01F
PASCAGOULA     CLOUDY    62  59  90 NE8       30.03F

$$

COASTAL OBSERVATIONS
LAKE AND NEARSHORE STATIONS

STATION/POSITION TIME  TEMP    WIND        PRES    WAVE
                       AIR SEA DIR/SP/G            HT/PER
                 (UTC) (F)     (DEG/KT/KT) (MB)    (FT/S)
PASCAGOULA       0200   61      60/ 13/ 17 1016.4
WAVELAND YACHT   0200   62     100/ 16/ 20 1015.3
GRAND ISLE       0200   65 62   80/  8/ 12 1015.3
SOUTHWEST PASS   0200   69 72              1014.4
NEW CANAL        0200   62 54   90/  4/ 12 1014.5
SHELL BEACH      0200   62 53   70/ 13/ 14 1015.2

OFFSHORE STATIONS

STATION/POSITION TIME  TEMP    WIND        PRES    WAVE
                       AIR SEA DIR/SP/G            HT/PER
                 (UTC) (F)     (DEG/KT/KT) (MB)    (FT/S)
64 S DAUPHIN ISL 0249   69 72   80/ 25/ 31 1014.6    7/ 7

$$




USA.gov is the U.S. government's official web portal to all federal, state and local government web resources and services.